Location: RapidEye Observatory
(35.3653°N, 79.2300°W)
Time: 20:54:33
(UTC-05:00)

OTV 5 (USA 277) - Visible Passes

Search period start: 23 January 2018 00:00
Search period end: 02 February 2018 00:00
Orbit: 404 x 417 km, 43.0° (Epoch: 07 September)

Date Brightness Start Highest point End Pass type
(mag) Time Alt. Az. Time Alt. Az. Time Alt. Az.
23 Jan ? 19:26:37 10° W 19:29:15 38° NW 19:29:15 38° NW visible
24 Jan ? 18:35:24 10° WSW 18:38:43 61° NNW 18:40:43 22° NE visible
25 Jan ? 19:22:19 10° WNW 19:24:54 26° NNW 19:24:54 26° NNW visible
26 Jan ? 18:30:57 10° W 18:34:02 32° NNW 18:36:18 15° NE visible
27 Jan ? 19:18:02 10° NW 19:20:26 21° N 19:20:26 21° N visible
28 Jan ? 18:26:43 10° WNW 18:29:29 23° N 18:31:48 12° NE visible
29 Jan ? 19:13:29 10° NW 19:15:58 22° N 19:15:58 22° N visible
30 Jan ? 18:22:18 10° NW 18:24:59 21° N 18:27:23 11° NE visible
30 Jan ? 19:59:40 10° NW 20:00:09 13° NW 20:00:09 13° NW visible
31 Jan ? 19:08:39 10° NW 19:11:38 30° NNE 19:11:38 30° NNE visible
01 Feb ? 18:17:36 10° NW 18:20:29 25° N 18:23:11 11° ENE visible
01 Feb ? 19:54:44 10° WNW 19:55:58 21° WNW 19:55:58 21° WNW visible
